Regional Weather Roundup
Issued by NWS

Home | Current Version | Previous Version | Text Only | Print | Product List | Glossary On
Versions: 1 2 3 4 5 6 7 8 9 10 11 12 13 14 15 16 17 18 19 20 21 22 23 24 25 26 27 28 29 30 31 32 33 34 35 36 37 38 39 40 41 42 43 44 45 46 47 48 49
000
ASUS42 KTBW 280316
RWRFL
FLORIDA REGIONAL WEATHER ROUNDUP
NATIONAL WEATHER SERVICE TAMPA BAY RUSKIN FL
1100 PM EDT MON APR 27 2015

NOTE: "FAIR" INDICATES FEW OR NO CLOUDS BELOW 12,000 FEET WITH NO
SIGNIFICANT WEATHER AND/OR OBSTRUCTIONS TO VISIBILITY.


FLZ001>010-012>015-112-114-115-280400-
PANHANDLE FLORIDA

CITY           SKY/WX    TMP DP  RH WIND       PRES   REMARKS
PENSACOLA      CLOUDY    65  62  90 N10       29.84R
PENSACOLA NAS  LGT RAIN  65  63  93 NW12      29.84R
MILTON NAS     CLOUDY    64  62  93 N6        29.85
CRESTVIEW      CLOUDY    65  62  90 CALM      29.85R
DUKE FIELD     CLOUDY    65  62  90 N6        29.81R
VALPARAISO     CLOUDY    66  63  89 E12       29.79R
MARY ESTHER    CLOUDY    66  61  82 SE12      29.74
TRI COUNTY     FAIR      65  62  90 NE3       29.81F
PANAMA CITY    FAIR      66  63  90 NE6       29.79F
TYNDALL AFB    DRIZZLE   67  66  96 NE7       29.79R
APALACHICOLA   CLOUDY    71  67  87 CALM      29.80R

STATION/POSITION SKY/WX   TEMP    WIND        PRES    WAVE   SWELL
                          AIR SEA DIR/SP/G            HT/PER HT/PER
                          (F)     (DEG/KT/KT) (MB)    (FT/S) (FT/S)
30.1N   87.6W              71 73  110/ 10/ 14 1008.4R   4/ 4   2/ 6
29.2N   88.2W              76 76  140/ 14/ 17 1007.5R   6/ 6   3/ 8
28.8N   86.0W              73 76  170/ 25/ 31 1007.0R   4/ 4
PANAMA CITY BEAC           67 75   30/  7/  9 1008.9R
CAPE SAN BLAS    NOT AVBL
TOWER C                    71     160/ 18/ 21 1007.8R
28.5N   84.5W              72 75  160/ 21/ 27 1008.2F   1/ 3

$$
FLZ011-016>038-118-127-128-134-139-239-280400-
NORTH FLORIDA

CITY           SKY/WX    TMP DP  RH WIND       PRES   REMARKS
MARIANNA       CLOUDY    65  64  97 NE5       29.81S
TALLAHASSEE    CLOUDY    69  65  86 E7        29.83R
PERRY          CLOUDY    70  69  99 E5        29.84F FOG
CROSS CITY       N/A     69  67  93 NE7       29.82F
LAKE CITY      MOCLDY    66  64  94 E6        29.86S
GAINESVILLE    CLOUDY    68  66  93 N6        29.85F
MAYPORT NAS    CLOUDY    67  63  87 E6        29.87S
JACKSONVILLE   CLOUDY    65  63  93 S6        29.85F
JAX NAS        CLOUDY    70  63  78 E5        29.89R
JAX CRAIG      CLOUDY    67  63  87 CALM      29.87S
JAX CECIL      CLOUDY    66  64  94 CALM      29.88F
FERNANDINA BEA FAIR      70  64  83 SE5       29.84F
ST AUGUSTINE   CLOUDY    68  65  90 SE6       29.89S

STATION/POSITION SKY/WX   TEMP    WIND        PRES    WAVE   SWELL
                          AIR SEA DIR/SP/G            HT/PER HT/PER
                          (F)     (DEG/KT/KT) (MB)    (FT/S) (FT/S)
SHELL POINT                70      20/  5/  7   N/A
KEATON BEACH               69      50/  4/  6 1010.0R
CEDAR KEY                  73     190/ 11/ 12 1008.9F
FERNANDINA                 67 72   CALM  /  1 1011.3R
30.7N   81.3W                 70                N/A     2/ 6
MAYPORT                    67 69   30/  3/  4 1011.9R
31.4N   80.9W              67 69   90/  4/  6 1011.8F   2/ 6   2/ 6
ST AUGUSTINE               68 69   60/  4/  4 1012.6R

$$
FLZ040-043>046-052-053-057-058-063-144-280400-
INTERIOR CENTRAL FLORIDA

CITY           SKY/WX    TMP DP  RH WIND       PRES   REMARKS
OCALA          CLOUDY    66  64  94 S6        29.83F
THE VILLAGES     N/A     68  68 100 CALM      29.75F FOG
LEESBURG       LGT RAIN  69  66  90 CALM      29.86F
SANFORD        CLOUDY    71  65  81 NW7       29.87R
ORLANDO EXEC   CLOUDY    73  64  73 NW8       29.89R
ORLANDO INTL   CLOUDY    74  66  76 N9        29.89R
WINTER HAVEN   CLOUDY    74  66  76 N5        29.90R
LAKELAND       CLOUDY    72  63  73 N5        29.90R
BARTOW         FAIR      73  64  73 N5        29.90R
OKEECHOBEE     CLOUDY    70  70 100 CALM      29.89S

$$
FLZ041-047-054-059-064-141-147-280400-
EAST CENTRAL FLORIDA

CITY           SKY/WX    TMP DP  RH WIND       PRES   REMARKS
DAYTONA BEACH  CLOUDY    70  69  97 VRB5      29.88R
DELAND           N/A     70  68  94 N3        29.88F
JFK SPACE CTR  LGT RAIN  72  68  88 CALM      29.86R
CAPE CANAVERAL CLOUDY    72  69  89 N2        29.85S FOG
PATRICK AFB    CLOUDY    75  70  85 N5        29.86S
MELBOURNE      CLOUDY    74  62  66 NW6       29.87R
VERO BEACH     CLOUDY    76  69  79 N7        29.88S
FT PIERCE      CLOUDY    75  71  87 SE5       29.88R
STUART         CLOUDY    70  68  94 CALM      29.89S

STATION/POSITION SKY/WX   TEMP    WIND        PRES    WAVE   SWELL
                          AIR SEA DIR/SP/G            HT/PER HT/PER
                          (F)     (DEG/KT/KT) (MB)    (FT/S) (FT/S)
28.5N   80.2W              75 76  350/  8/  8 1011.4R
28.9N   78.5W              75 79  360/ 12/ 14 1010.9R
TRIDENT PIER               73 78   20/  3/  5 1011.6R
28.4N   80.5W                 78                N/A     1/ 2
27.5N   80.2W                 77                N/A     2/ 4

$$
FLZ050-056-061-142-242-148-248-149-249-151-251-155-255-
160-260-280400-
WEST CENTRAL FLORIDA

CITY           SKY/WX    TMP DP  RH WIND       PRES   REMARKS
CRYSTAL RIVER  RAIN      68  66  94 S3        29.86F
INVERNESS      DRIZZLE  N/A N/A N/A CALM      29.88S
BROOKSVILLE    RAIN      70  67  90 N14       29.87F
CLEARWATER     CLOUDY    74  66  76 N10       29.89R
TAMPA INTL     DRIZZLE   74  65  73 N6        29.90R
TAMPA EXEC     CLOUDY    73  64  73 NE3       29.89S
PLANT CITY     CLOUDY    73  66  78 N3        29.91S
MACDILL AFB    LGT RAIN  74  68  79 N10       29.89R
PETER O KNIGHT CLOUDY    77  64  65 N7        29.89R
ST PETERSBURG  LGT RAIN  75  66  73 N8        29.88R
SARASOTA       CLOUDY    77  63  61 N7        29.88R
VENICE         MOCLDY    77  63  61 NE10      29.88S

STATION/POSITION SKY/WX   TEMP    WIND        PRES    WAVE   SWELL
                          AIR SEA DIR/SP/G            HT/PER HT/PER
                          (F)     (DEG/KT/KT) (MB)    (FT/S) (FT/S)
CEDAR KEY                  73     190/ 11/ 12 1008.9F
28.5N   84.5W              72 75  160/ 21/ 27 1008.2F   1/ 3
27.3N   84.2W                 78                N/A     6/ 6
CLEARWATER BEACH           76 81  340/ 21/ 24 1012.1R
MIDDLE TAMPA BAY           77      30/ 16/ 20 1011.7R
VENICE                     78 83   40/  8/  9 1011.0R

$$
FLZ066-069-070-075>078-162-262-165-265-280400-
SOUTHWEST FLORIDA AND KEYS

CITY           SKY/WX    TMP DP  RH WIND       PRES   REMARKS
PUNTA GORDA    CLOUDY    74  64  71 NE6       29.89R
FT MYERS       CLOUDY    79  67  66 NE6       29.86R
SOUTHWEST INTL CLOUDY    78  67  68 E6        29.87R
NAPLES         MOCLDY    80  69  69 NE8       29.86R
MARCO ISLAND   CLOUDY    79  66  65 NE8       29.86S
IMMOKALEE      PTCLDY   N/A N/A N/A CALM      29.88S
MARATHON       MOCLDY    85  76  74 SE3       29.85R
KEY WEST NAS   PTCLDY    84  75  74 SE8       29.85R
KEY WEST INTL  CLEAR     85  75  72 SE9       29.85S

STATION/POSITION SKY/WX   TEMP    WIND        PRES    WAVE   SWELL
                          AIR SEA DIR/SP/G            HT/PER HT/PER
                          (F)     (DEG/KT/KT) (MB)    (FT/S) (FT/S)
VENICE                     78 83   40/  8/  9 1011.0R
NAPLES                     83 87   10/  4/  5 1010.6R
26.0N   85.6W              80 80   70/  6/  6 1009.6R   4/ 6   3/ 6
DRY TORTUGAS               83     120/  9/ 10 1009.8R
NW FL BAY                  86      60/  1/  2 1011.0
SAND KEY                   83     120/ 11/ 12 1010.8R
SOMBRERO KEY               84     130/  7/  8 1011.7R
LONG KEY                   84 89  140/  6/  7 1011.7R
MOLASSES REEF              83 82  230/  1/  2 1011.1R

$$
FLZ067-068-071>074-168-172>174-280400-
SOUTHEAST FLORIDA

CITY           SKY/WX    TMP DP  RH WIND       PRES   REMARKS
W PALM BEACH   CLOUDY    76  72  87 CALM      29.88S
FT LAUDER-EXEC CLOUDY    76  72  87 NE9       29.87R
FT LAUDERDALE  CLOUDY    77  74  90 NE10      29.86S
POMPANO BEACH  MOCLDY    76  72  87 E8        29.87R
PEMBROKE PINES CLOUDY    77  72  84 NE10      29.88S
OPA LOCKA      CLOUDY    77  73  87 NE10      29.87R
MIAMI          MOCLDY    80  70  71 NE7       29.87R
WEST KENDALL   PTCLDY    82  71  69 N10       29.86R
HOMESTEAD      PTCLDY    82  76  83 S3        29.85R

STATION/POSITION SKY/WX   TEMP    WIND        PRES    WAVE   SWELL
                          AIR SEA DIR/SP/G            HT/PER HT/PER
                          (F)     (DEG/KT/KT) (MB)    (FT/S) (FT/S)
PORT EVERGLADES            78      50/ 13/ 17 1011.3R
VIRGINIA KEY               83 85  100/  5/  7 1010.5R
LAKE WORTH                 77 81   60/  8/ 10 1011.1R
SETTLEMENT POINT           78     350/  7/  9 1012.1F

$$




USA.gov is the U.S. government's official web portal to all federal, state and local government web resources and services.